www.pogodaiklimat.ru
ПОГОДА в Большом Каньоне
Время
и дата
11:54 04.07
12:54 04.07
13:54 04.07
14:54 04.07
15:54 04.07
16:54 04.07
17:54 04.07
18:54 04.07
19:54 04.07
20:54 04.07
21:54 04.07
22:54 04.07
23:54 04.07
00:54 05.07
01:54 05.07
02:54 05.07
03:54 05.07
04:54 05.07
05:54 05.07
06:54 05.07
07:54 05.07
08:54 05.07
09:54 05.07
10:54 05.07
11:54 05.07
12:54 05.07
13:54 05.07
14:54 05.07
15:54 05.07
16:54 05.07
17:54 05.07
18:54 05.07
19:54 05.07
20:54 05.07
21:54 05.07
22:54 05.07
23:54 05.07
00:54 06.07
01:54 06.07
02:54 06.07
03:54 06.07
04:54 06.07
05:54 06.07
06:54 06.07
07:54 06.07
08:54 06.07
09:54 06.07
10:54 06.07
Ветер
(напр.,м/с)
Видим. Явления Облачность Т
(С)
Тd
(С)
f
(%)
Тe
(С)
Тes
(С)
Комфортность P
(гПа)
Po
(гПа)
Тmin
(С)
Tmax
(С)
R
(мм)
R24
(мм)
S
(см)
ЮЗ 4
{6}
16 км ясно +26.7 +2.8 21 +25 +29 комфорт 1012.3 801.0
Ю 4
{6}
16 км ясно +27.8 +2.8 20 +26 +30 жарко 1011.5 801.0
ЮЗ 3
{6}
16 км ясно +28.3 +5.0 23 +27 +33 жарко 1010.8 800.2
ЮЗ 2
{5}
16 км 2/0 2700 м
[Ac]
+28.3 +3.9 21 +27 +37 жарко 1010.6 800.2
Ю 2
{5}
16 км 5/0 2700 м
[Ac]
+28.3 +5.0 23 +27 +34 жарко 1011.1 799.7
ЮЗ 3
{5}
16 км 8/0 2550 м
[Ac]
+27.8 +5.6 24 +27 +28 жарко 1011.3 799.4 +26.1 +29.4
ЮЗ 3
{5}
16 км 8/0 2700 м
[Ac]
+27.8 +5.6 24 +27 +27 жарко 1010.9 799.4
Ю 4
{5}
16 км 5/0 2550 м
[Ac]
+25.6 +6.1 29 +25 +26 комфорт 1010.0 799.7
ЮЗ 2 16 км 2/0 2850 м
[Ac]
+23.3 +6.1 33 +24 +24 комфорт 1010.1 800.0
ЮЗ 2 16 км 8/0 2400 м
[Ac]
+22.2 +6.1 35 +23 +23 комфорт 1010.5 800.5
ЮЗ 2 16 км 8/0 2100 м
[Ac]
+21.1 +6.7 39 +22 +22 комфорт 1011.3 801.0
ЮЗ 1 16 км ясно +17.8 +6.1 46 +18 +18 1011.9 801.3 +17.2 +28.3
штиль 0 16 км ясно +13.9 +4.4 53 +14 +14 1012.6 801.3
штиль 0 16 км ясно +12.2 +3.9 57 +12 +12 1012.9 801.3
штиль 0 16 км ясно +11.7 +4.4 61 +11 +11 1012.7 801.0
штиль 0 16 км ясно +10.6 +3.9 63 +10 +10 1012.9 801.0
штиль 0 16 км ясно +10.0 +3.9 66 +10 +10 1013.0 801.0
В 1 16 км 5/0 2100 м
[Ac]
+10.0 +3.9 66 +9 +9 1013.8 801.6 +9.4 +17.8
штиль 0 16 км ясно +10.0 +4.4 68 +10 +10 1013.9 801.6
штиль 0 16 км 10/5 1650 м
[Ac]
+13.9 +6.1 59 +14 +14 1013.9 801.8
ЮВ 1 16 км 8/0 2850 м
[Ac]
+20.0 +6.1 40 +21 +22 комфорт 1013.3 802.1
ЮЗ 3
{4}
16 км 8/0 3000 м
[Ac]
+22.2 +6.7 37 +23 +24 комфорт 1012.9 801.8
Ю 1 16 км 5/0 3000 м
[Ac]
+22.2 +6.7 37 +23 +29 комфорт 1013.1 801.8
ЮЗ 2
{4}
16 км 8/2 1950 м
[Ac]
+25.0 +7.2 32 +25 +30 комфорт 1013.0 801.8 +9.4 +25.0
Ю 2
{4}
16 км 8/0 2100 м
[Ac]
+26.1 +7.2 30 +26 +30 жарко 1013.2 801.6
З 2 16 км 10/0 2400 м
[Ac]
+26.1 +5.6 27 +25 +30 комфорт 1012.8 801.0
Ю 4
{5}
16 км 8/0 2550 м
[Ac]
+26.7 +5.6 26 +26 +27 жарко 1012.3 800.5
Ю 3
{6}
16 км 5/0 2700 м
[Ac]
+28.3 +6.7 25 +27 +32 жарко 1011.8 800.2
ЮЗ 3
{5}
16 км 5/0 2550 м
[Ac]
+27.8 +5.6 24 +27 +30 жарко 1011.7 799.7
З 2
{4}
16 км 10/0 3000 м
[Ac]
+27.2 +5.0 24 +26 +28 жарко 1011.2 799.4 +24.4 +28.9
ЮЗ 2 16 км 10/0 2850 м
[Ac]
+27.2 +4.4 23 +26 +27 жарко 1011.6 799.7
ЮВ 2 16 км 8/0 3300 м
[Ac]
+22.2 +11.7 51 +24 +25 комфорт 1012.1 800.0
ЮВ 1 16 км 5/0 3600 м
[Ac]
+21.1 +11.7 55 +23 +23 комфорт 1011.4 800.2
штиль 0 16 км ясно +20.0 +10.6 55 +21 +21 комфорт 1012.0 800.8
штиль 0 16 км ясно +16.1 +9.4 64 +16 +16 1013.5 801.6
штиль 0 16 км ясно +13.3 +8.3 72 +13 +13 1013.9 801.8 +13.3 +27.8
штиль 0 16 км ясно +11.7 +7.2 74 +11 +11 1014.4 801.8
штиль 0 16 км ясно +9.4 +6.1 80 +9 +9 1014.8 801.8
штиль 0 16 км ясно +8.3 +4.4 76 +8 +8 1014.8 801.8
штиль 0 16 км ясно +8.3 +4.4 76 +8 +8 1014.3 801.6
штиль 0 16 км ясно +7.2 +3.9 80 +6 +6 1014.6 801.8
штиль 0 16 км ясно +6.7 +2.8 76 +6 +6 1015.2 801.8 +6.1 +13.3
штиль 0 16 км ясно +7.2 +2.2 71 +7 +7 1015.6 802.4
штиль 0 16 км ясно +14.4 +3.9 49 +14 +15 1015.5 802.6
штиль 0 16 км 2/0 2250 м
[Ac]
+19.4 +3.3 34 +20 +22 1014.8 802.9
ЮЗ 1 16 км ясно +22.8 +1.7 25 +22 +27 комфорт 1014.3 802.9
ЮЗ 2
{4}
16 км ясно +23.9 +2.2 24 +23 +29 комфорт 1015.0 802.9
ЮЗ 2 16 км 5/0 2400 м
[Ac]
+23.9 +2.8 25 +23 +30 комфорт 1015.7 802.9 +5.6 +25.0
Местоположение метеостанции Grand Canyon National Park Airport: широта 35.9461 долгота -112.1547 высота над уровнем моря 2014 м.
В архиве по умолчанию представлена погода в Большом Каньоне за последние 1-2 суток. Обновление информации о фактической погоде в базе происходит ежечасно! Архивные данные за месяц целиком и за предыдущие месяцы Вы можете получить, выбрав интересующий диапазон дат из раскрывающегося списка и нажав кнопку "Ввод!".
Внимание! Архив погоды МЕТАР в базе сайта по станциям, не включенным в климатический монитор, хранится не более 60 дней. Нет смысла пытаться выбрать более раннюю дату.
*Определитесь, кто Вы:
Внимание! Время в таблицах - местное (без учета летнего времени). Для получения всемирного времени необходимо вычесть поправку, которая равна -7 ч.
Смотрите также архив погоды в соседних городах и на ближайших метеорологических станциях:
Партнеры нашего сайта:      
Пояснения к столбцам:
  • Ветер - указаны скорость ветра в м/с - средняя за 10 мин, порывы в срок и между сроками (в фигурных скобках) и направление, откуда дует ветер: С - северный,
  • СВ - северо-восточный, В - восточный, ЮВ - юго-восточный, Ю - южный, ЮЗ - юго-западный, З - западный, СЗ - северо-западный.
  • Видимость - горизонтальная дальность видимости в метрах или километрах. При видимости от 1 до 10 км при отсутствии осадков обычно наблюдается дымка, при ухудшении видимости до 1 км и менее - туман. В сухую погоду видимость может ухудшаться дымом, пылью или мглою.
  • Явления - указаны атмосферные явления, наблюдавшиеся в срок или в последний час перед сроком; фигурными скобками обозначены явления, наблюдавшиеся между сроками (за 1-3 часа до срока); квадратными скобками обозначены град или гололедные отложения с указанием их диаметра в мм.
  • Облачность - указаны через наклонную черту общая и нижняя облачность в баллах и высота нижней границы облаков в метрах; квадратными скобками обозначены формы облаков: Ci - перистые, Cs - перисто-слоистые, Cc - перисто-кучевые, Ac - высококучевые, As - высокослоистые, Sc - слоисто-кучевые, Ns - слоисто-дождевые, Cu - кучевые, Cb - кучево-дождевые. Подробнее классификацию облаков см. в Атласе облаков (PDF).
  • T - Температура воздуха - температура, измеренная на высоте 2 м над землей.
  • Td - Температура точки росы - температура, при понижении до которой содержащийся в воздухе водяной пар достигнет насыщения.
  • f - Относительная влажность воздуха - влажноcть воздуха, измеренная на высоте 2 м над землей.
  • Te - Эффективная температура - температура, которую ощущает одетый по сезону человек в тени. Характеристика душности погоды. При расчете учитывается влияние влажности воздуха и скорости ветра на теплоощущения человека.
  • Tes - Эффективная температура на солнце - температура, которую ощущает человек, с поправкой на солнечный нагрев. Характеристика знойности погоды. Зависит от высоты солнца над горизонтом, облачности и скорости ветра. Ночью, в пасмурную погоду, а также при ветре 12 м/с и более поправка равна нулю.
  • P - Атмосферное давление - приведенное к уровню моря атмосферное давление.
  • Po - Атмосферное давление - измеренное на уровне метеостанции атмосферное давление.
  • Tmin - Минимальная температура - минимум температуры воздуха на высоте 2 м над землей.
  • Tmax - Максимальная температура - максимум температуры воздуха на высоте 2 м над землей.
  • R - Количество осадков - Количество выпавших осадков за период времени, мм. При наведении курсора мыши на число - период времени, за который выпало указанное количество осадков.
  • R24 - Количество осадков - Количество выпавших осадков за 24 часа, мм.
  • S - Снежный покров - Высота снежного покрова, см. При наведении курсора мыши на число - состояние снежного покрова и степень покрытия местности в баллах.